Regional Weather Roundup
Issued by NWS

Home | Current Version | Previous Version | Graphics & Text | Print | Product List | Glossary Off
Versions: 1 2 3 4 5 6 7 8 9 10 11 12 13 14 15 16 17 18 19 20 21 22 23 24 25 26 27 28 29 30 31 32 33 34 35 36 37 38 39 40 41 42 43 44 45 46 47 48 49 50

000
ASUS43 KTOP 210508
RWRKS

WEATHER ROUNDUP FOR KANSAS
NATIONAL WEATHER SERVICE GOODLAND KS
1200 AM CDT TUE APR 21 2015

NOTE:  "FAIR" INDICATES FEW OR NO CLOUDS BELOW 12,000 FEET WITH NO
SIGNIFICANT WEATHER AND/OR OBSTRUCTIONS TO VISIBILITY.

KSZ001>006-013>018-027>032-041>047-210600-
NORTHWEST KANSAS

CITY           SKY/WX    TMP DP  RH WIND       PRES   REMARKS
GOODLAND       PTCLDY    38  33  82 CALM      29.94F
HAYS           MOCLDY    39  25  56 W5        29.92S
HILL CITY      CLEAR     43  32  65 W5        29.91S
RUSSELL        CLOUDY    47  35  63 SW7       29.89F
$$

KSZ061>065-074>080-084>089-210600-
SOUTHWEST KANSAS

CITY           SKY/WX    TMP DP  RH WIND       PRES   REMARKS
DODGE CITY     CLOUDY    51  31  46 SW9       29.94S
ELKHART          N/A     46  37  71 S6          N/A
GARDEN CITY    CLOUDY    49  33  54 CALM      29.94S
GREAT BEND     MOCLDY    46  34  61 CALM      29.92S
LIBERAL        PTCLDY    48  28  46 S5        29.96S
PRATT          CLEAR     41  36  81 SW9       29.93F
$$

KSZ066>073-081>083-090>101-210600-
SOUTHEAST KANSAS

CITY           SKY/WX    TMP DP  RH WIND       PRES   REMARKS
CHANUTE        CLEAR     45  38  76 SW7       29.91S
COFFEYVILLE    CLEAR     47  38  71 SW7       29.93S
HUTCHINSON     MOCLDY    43  37  79 CALM      29.92S
MEDICINE LODGE   N/A     48  38  68 S3        29.93F
NEWTON         MOCLDY    48  34  57 SW6       29.93S
PARSONS        CLEAR     44  42  93 CALM      29.93F
WICHITA INTL   MOCLDY    49  38  65 SW5       29.91F
WICHITA JABRA  MOCLDY    52  37  56 SW8       29.92S
WICHITA MCCONL MOCLDY    51  38  60 S8        29.92F
WINFIELD       CLEAR     45  38  76 S5        29.94S
$$

KSZ007>012-019>026-033>040-048>060-102>105-210600-
NORTHEAST KANSAS

CITY           SKY/WX    TMP DP  RH WIND       PRES   REMARKS
CONCORDIA      MOCLDY    46  28  49 SW7       29.88S
EMPORIA        CLOUDY    48  35  60 SW10      29.89F
LAWRENCE       CLEAR     36  32  85 CALM      29.87S
MANHATTAN      CLEAR     40  33  76 CALM      29.88S
MARYSVILLE     CLEAR     45  30  57 W5        29.86S
OLATHE IND     CLEAR     45  32  60 SW9       29.87F
OLATHE EXE     CLEAR     47  30  51 SW6       29.86S
SALINA         CLOUDY    48  34  58 SW9       29.90S
TOPEKA BILLARD CLEAR     46  32  58 W3        29.88R
TOPEKA FORBES  CLEAR     44  31  60 SW9       29.87S
$$


USA.gov is the U.S. government's official web portal to all federal, state and local government web resources and services.